sat.trackr.live / text

‹ back to catalog

STARLINK-34622

NORAD 66015 · 2025-232L

PAYLOAD ACTIVE UNKNOWN

§ Identity

Operator
Country
US
Launch date
2025-10-16
Launch site
AFETR
Launch vehicle
Mass (kg)
RCS (m²)

Purposes: comms

External: N2YO · Heavens-Above · Gunter

§ Orbital elements

Epoch: 2026-09-20T06:23:02.154624Z

Period
93.85 min
Inclination
53.1582°
Eccentricity
0.0001620
Mean motion
15.34408811 rev/d
Perigee alt
461.6 km
Apogee alt
463.8 km
Semi-major
6,840.8 km
B*
3.8747e-4
RAAN
276.7441°
Arg perigee
105.7476°
Mean anomaly
254.3705°
Rev number
5,326

§ Raw data

STARLINK-346221 66015U 25232L   26263.26599716  .00012741  00000+0  38747-3 0  99922 66015  53.1582 276.7441 0001620 105.7476 254.3705 15.34408811 53261

JSON: /api/v1/satellites/66015 · /tle

For live sub-satellite position, see the globe view (requires WebGL).

§ Visibility from observer

Set your observer location to see the next 7 days of passes ≥ 10°. The values pass through the URL so the page stays shareable.

No JS? Fill the form by hand. The geolocation button needs JavaScript.